{"data":{"norad_id":65025,"intl_designator":"2025-161L","name":"STARLINK-34727","alt_names":[],"object_type":"PAYLOAD","status":"ACTIVE","operator":null,"country":"US","launch_date":"2025-07-30","launch_site_code":"AFWTR","launch_vehicle":null,"mission":null,"orbit_class":"UNKNOWN","rcs_meters":null,"size_class":null,"mass_kg":null,"dimensions":null,"purposes":["comms"],"wikipedia_slug":null,"has_3d_model":false,"image_url":null,"decayed_at":null,"tle_current":{"epoch":"2026-09-19T22:11:01.175424Z","epoch_age_seconds":174003,"freshness":"STALE","line1":"1 65025U 25161L   26262.92431916  .00010136  00000+0  31069-3 0  9998","line2":"2 65025  53.1579 108.0598 0001279  88.7708 271.3441 15.34401628 65140","mean_motion":15.34401628,"eccentricity":0.0001279,"inclination_deg":53.1579,"raan_deg":108.0598,"arg_perigee_deg":88.7708,"mean_anomaly_deg":271.3441,"bstar":0.00031069,"rev_number":6514,"period_min":93.847658508871,"perigee_km":461.82345860445,"apogee_km":463.57334430014,"semimajor_km":6840.8354014523,"source":"CELESTRAK","updated_at":"2026-09-21T09:00:35.493662Z"}}}